KE9LZ-9 Weather Reports


Display with metric or nautical units.
time (UTC)temp
F
wind
direction
speed
MPH
gust
MPH
rain 1hr
in
rain 24hr
in
rain mn
in
humidity
%
barometer
mb
20170627222005 73 191 2.0 3.0 0.00 0.00 0.00 40 1011.7
20170627221005 77 239 3.0 5.0 0.00 0.00 0.00 37 1012.0
20170627220004 77 253 2.0 5.0 0.00 0.00 0.00 37 1011.9
20170627215005 75 270 3.0 5.0 0.00 0.00 0.00 36 1012.1
20170627214005 73 279 1.0 7.0 0.00 0.00 0.00 40 1012.1
20170627213005 77 270 3.0 10.0 0.00 0.00 0.00 37 1012.2
20170627212005 77 350 2.0 6.0 0.00 0.00 0.00 35 1012.2
20170627211005 77 223 2.0 5.0 0.00 0.00 0.00 38 1012.6
20170627210004 75 257 2.0 5.0 0.00 0.00 0.00 40 1012.9
20170627205004 75 184 1.0 3.0 0.00 0.00 0.00 40 1013.0
20170627204004 75 283 1.0 9.0 0.00 0.00 0.00 40 1013.1
20170627203005 75 305 3.0 9.0 0.00 0.00 0.00 37 1013.0
20170627202005 77 25 1.0 7.0 0.00 0.00 0.00 40 1013.4
20170627201005 75 263 2.0 7.0 0.00 0.00 0.00 38 1013.4
20170627200004 75 213 2.0 3.0 0.00 0.00 0.00 38 1013.4
20170627195005 75 358 2.0 5.0 0.00 0.00 0.00 37 1013.9
20170627194006 73 216 2.0 5.0 0.00 0.00 0.00 40 1013.9
20170627193005 75 317 3.0 7.0 0.00 0.00 0.00 37 1013.9
20170627192004 75 233 3.0 8.0 0.00 0.00 0.00 41 1013.9
20170627191006 73 280 1.0 2.0 0.00 0.00 0.00 44 1014.0
20170627190005 72 225 2.0 6.0 0.00 0.00 0.00 43 1014.0
20170627185005 72 62 1.0 3.0 0.00 0.00 0.00 44 1014.0
20170627184004 72 270 2.0 5.0 0.00 0.00 0.00 43 1014.0
20170627183005 73 260 2.0 3.0 0.00 0.00 0.00 40 1014.1
20170627182005 72 68 1.0 7.0 0.00 0.00 0.00 45 1014.1
20170627181005 73 279 2.0 7.0 0.00 0.00 0.00 42 1014.1
20170627180005 73 270 3.0 9.0 0.00 0.00 0.00 40 1014.5
20170627175005 73 257 1.0 3.0 0.00 0.00 0.00 45 1014.5
20170627174005 72 245 2.0 3.0 0.00 0.00 0.00 44 1014.9
20170627173005 72 215 2.0 3.0 0.00 0.02 0.00 45 1015.0
20170627172005 70 150 1.0 3.0 0.00 0.02 0.00 48 1015.0
20170627171005 70 49 3.0 5.0 0.00 0.02 0.00 45 1015.0
20170627170006 72 338 2.0 3.0 0.00 0.02 0.00 44 1015.3
20170627165006 72 253 2.0 5.0 0.00 0.02 0.00 43 1015.4
20170627164006 73 134 5.0 7.0 0.00 0.02 0.00 41 1015.4
20170627163009 72 270 3.0 7.0 0.00 0.02 0.00 44 1015.4
20170627162005 73 332 2.0 7.0 0.00 0.02 0.00 43 1015.5
20170627161006 72 51 2.0 5.0 0.00 0.02 0.00 46 1015.5
20170627160005 72 239 2.0 7.0 0.00 0.02 0.00 45 1015.6
20170627155006 71 299 3.0 9.0 0.00 0.02 0.00 48 1015.9
20170627154006 72 257 3.0 6.0 0.00 0.02 0.00 46 1015.9
20170627153006 72 257 5.0 7.0 0.00 0.02 0.00 47 1015.9
20170627152005 70 301 2.0 3.0 0.00 0.02 0.00 49 1016.2
20170627151005 68 260 2.0 5.0 0.00 0.02 0.00 49 1016.4
20170627150006 70 45 2.0 5.0 0.00 0.02 0.00 49 1016.4
20170627145005 68 247 2.0 5.0 0.00 0.02 0.00 51 1016.4
20170627144004 68 270 2.0 6.0 0.00 0.02 0.00 52 1016.8
20170627143005 68 262 1.0 3.0 0.00 0.02 0.00 54 1016.8
20170627142008 66 36 1.0 2.0 0.00 0.02 0.00 60 1016.8
20170627141008 64 45 2.0 3.0 0.00 0.02 0.00 61 1017.3
20170627140004 64 186 1.0 3.0 0.00 0.02 0.00 63 1017.3
20170627135004 63 270 1.0 6.0 0.00 0.02 0.00 66 1017.3
20170627134006 63 226 1.0 6.0 0.00 0.02 0.00 68 1017.4
20170627133004 61 244 2.0 5.0 0.00 0.02 0.00 70 1017.3
20170627132004 61 197 2.0 3.0 0.00 0.02 0.00 71 1017.6
20170627131005 61 291 1.0 5.0 0.00 0.02 0.00 74 1017.4
20170627130005 59 302 2.0 3.0 0.00 0.02 0.00 76 1017.4
20170627125004 57 293 2.0 3.0 0.00 0.02 0.00 81 1017.4
20170627124005 55 271 2.0 3.0 0.00 0.02 0.00 83 1017.4
20170627123006 54 312 2.0 3.0 0.00 0.02 0.00 88 1017.3
20170627122005 54 270 1.0 3.0 0.00 0.02 0.00 88 1017.3
20170627121004 52 270 1.0 3.0 0.00 0.02 0.00 91 1017.3
20170627120008 50 351 1.0 3.0 0.00 0.02 0.00 96 1016.9
20170627115004 49 158 1.0 3.0 0.00 0.02 0.00 98 1016.9
20170627114005 48 300 1.0 3.0 0.00 0.02 0.00 98 1016.9
20170627113004 47 278 0.0 2.0 0.00 0.02 0.00 98 1016.8
20170627112004 47 287 0.0 2.0 0.00 0.02 0.00 98 1016.8
20170627111004 46 225 0.0 2.0 0.00 0.02 0.00 98 1016.8
20170627110004 46 212 0.0 1.0 0.00 0.02 0.00 98 1016.5
20170627105005 46 226 0.0 2.0 0.00 0.02 0.00 98 1016.5
20170627104004 45 225 0.0 1.0 0.00 0.02 0.00 98 1016.4
20170627103004 45 216 0.0 1.0 0.00 0.02 0.00 98 1016.4
20170627102005 45 260 0.0 1.0 0.00 0.02 0.00 98 1016.4
20170627101004 45 254 0.0 1.0 0.00 0.02 0.00 98 1016.0
20170627100004 45 245 0.0 0.0 0.00 0.02 0.00 98 1016.4
20170627095005 45 270 0.0 0.0 0.00 0.02 0.00 98 1016.4
20170627094004 45 198 0.0 0.0 0.00 0.02 0.00 98 1016.2
20170627093005 46 203 0.0 0.0 0.00 0.02 0.00 98 1015.9
20170627092005 46 213 1.0 2.0 0.00 0.02 0.00 98 1016.2
20170627091004 45 270 0.0 2.0 0.00 0.02 0.00 98 1015.9
20170627090004 44 270 0.0 1.0 0.00 0.02 0.00 98 1016.3
20170627085005 44 270 0.0 1.0 0.00 0.02 0.00 98 1015.8
20170627084005 44 217 0.0 0.0 0.00 0.02 0.00 98 1015.8
20170627083005 44 225 0.0 2.0 0.00 0.02 0.00 98 1015.5
20170627082004 44 234 0.0 0.0 0.00 0.02 0.00 98 1015.8
20170627081005 44 231 0.0 2.0 0.00 0.02 0.00 98 1015.5
20170627080004 45 225 0.0 1.0 0.00 0.02 0.00 98 1015.6
20170627075005 45 211 0.0 1.0 0.00 0.02 0.00 98 1015.4
20170627074005 45 225 0.0 3.0 0.00 0.02 0.00 98 1015.7
20170627073005 45 220 1.0 2.0 0.00 0.02 0.00 98 1015.7
20170627072005 45 248 0.0 2.0 0.00 0.02 0.00 98 1015.7
20170627071004 45 235 0.0 1.0 0.00 0.02 0.00 98 1015.7
20170627070005 45 240 0.0 2.0 0.00 0.02 0.00 98 1015.7
20170627065005 44 270 1.0 2.0 0.00 0.02 0.00 98 1015.7
20170627064005 44 225 0.0 0.0 0.00 0.02 0.00 98 1016.1
20170627063005 45 195 0.0 0.0 0.00 0.02 0.00 98 1015.6
20170627062004 45 208 0.0 1.0 0.00 0.02 0.00 98 1015.6
20170627061005 45 225 0.0 0.0 0.00 0.02 0.00 98 1015.6
20170627060005 45 195 0.0 0.0 0.00 0.02 0.00 98 1015.6
20170627055004 46 225 0.0 0.0 0.00 0.02 0.00 98 1015.6
20170627054005 46 225 0.0 2.0 0.00 0.02 0.00 98 1015.6
20170627053004 46 210 0.0 2.0 0.00 0.02 0.00 98 1016.0
20170627052004 46 248 0.0 2.0 0.00 0.02 0.00 98 1015.6
20170627051006 46 225 0.0 1.0 0.00 0.02 0.00 98 1016.0
20170627050004 46 270 0.0 2.0 0.00 0.02 0.00 98 1015.6
20170627045006 46 270 0.0 1.0 0.00 0.02 0.02 98 1015.6
20170627044004 46 270 0.0 0.0 0.00 0.02 0.02 98 1015.6
20170627043005 46 260 0.0 1.0 0.00 0.02 0.02 98 1015.6
20170627042004 46 225 0.0 0.0 0.00 0.02 0.02 98 1015.6
20170627041004 46 225 0.0 0.0 0.00 0.02 0.02 98 1015.5
20170627040005 46 225 0.0 0.0 0.00 0.02 0.02 98 1015.2
20170627035005 46 225 0.0 0.0 0.00 0.02 0.02 98 1015.5
20170627034005 46 239 0.0 0.0 0.00 0.02 0.02 98 1015.5
20170627033004 47 225 0.0 0.0 0.00 0.02 0.02 98 1015.5
20170627032004 47 239 0.0 0.0 0.00 0.02 0.02 98 1015.5
20170627031005 47 261 0.0 0.0 0.00 0.02 0.02 98 1015.5
20170627030004 48 256 0.0 0.0 0.00 0.03 0.02 98 1015.3
20170627025004 48 248 0.0 1.0 0.00 0.05 0.02 96 1015.2
20170627024004 49 248 0.0 0.0 0.00 0.05 0.02 96 1015.2
20170627023006 49 248 0.0 0.0 0.00 0.05 0.02 95 1015.2
20170627022005 50 253 0.0 0.0 0.00 0.06 0.02 94 1015.2
20170627021005 50 225 0.0 0.0 0.00 0.06 0.02 91 1015.2
20170627020004 50 225 0.0 0.0 0.00 0.06 0.02 91 1014.9
20170627015004 52 248 0.0 0.0 0.00 0.06 0.02 89 1014.9
20170627014005 54 226 0.0 0.0 0.00 0.06 0.02 86 1014.9
20170627013005 54 225 0.0 0.0 0.00 0.06 0.02 81 1014.9
20170627012004 55 248 0.0 0.0 0.00 0.06 0.02 80 1014.9
20170627011004 57 225 0.0 0.0 0.00 0.06 0.02 75 1014.9
20170627010005 59 225 0.0 0.0 0.00 0.06 0.02 75 1015.0
20170627005004 59 186 0.0 0.0 0.00 0.06 0.02 75 1015.2
20170627004005 63 262 0.0 0.0 0.00 0.06 0.02 63 1015.2
20170627003005 63 314 0.0 1.0 0.00 0.06 0.02 60 1015.2
20170627002006 64 113 0.0 2.0 0.00 0.06 0.02 56 1015.2
20170627001005 63 260 0.0 2.0 0.00 0.06 0.02 59 1015.3
20170627000004 63 284 1.0 3.0 0.00 0.06 0.02 58 1015.3
20170626235005 63 255 1.0 3.0 0.00 0.06 0.02 55 1015.3
20170626234005 63 257 1.0 3.0 0.00 0.06 0.02 54 1015.3
20170626233005 62 278 1.0 3.0 0.00 0.06 0.02 59 1015.3
20170626232005 61 293 1.0 3.0 0.00 0.06 0.02 61 1015.6
20170626231005 61 338 0.0 2.0 0.00 0.06 0.02 65 1015.7
20170626230005 61 264 1.0 3.0 0.00 0.07 0.02 68 1015.7
20170626225005 60 274 1.0 3.0 0.00 0.08 0.02 70 1015.7
20170626224004 57 225 1.0 3.0 0.00 0.09 0.02 70 1015.7
20170626223004 59 44 1.0 3.0 0.00 0.09 0.02 74 1015.7